Torna al catalogo

THORAD AGENA D DEB

AttivoPO
NORAD 4752·DEBRIS·🇺🇸 United States

Lanciato Apr 8, 1970 da Vandenberg Space Force Base

Loading…

Prossimi Passaggi

TLE

Source: Space-Track
1 04752U 70025DA  26223.41904749  .00001636  00000-0  82781-3 0  9990
2 04752  99.8889  15.5688 0018982 293.6146  66.3032 14.17709598841906

Traccia THORAD AGENA D DEB in tempo reale con AllMySat

Download on the App Store